Location: Stuttgart
(48.8069°N, 9.1544°E)
Time: 03:12:05
(UTC+02:00)

ISS - Pass Details

Date: 17 May 2021
Orbit: 417 x 422 km, 51.6° (Epoch: 15 June)

Event Time Altitude Azimuth Distance (km) Brightness Sun altitude
Rises 00:26:42 0° 272° (W) 2,366 0.3 -20.9°
Reaches altitude 10° 00:28:51 10° 278° (W) 1,504 -0.7 -20.9°
Maximum altitude 00:32:09 51° 355° (N) 539 -2.9 -21.0°
Drops below altitude 10° 00:35:28 10° 73° (ENE) 1,508 -0.9 -21.2°
Sets 00:37:36 0° 79° (E) 2,374 0.1 -21.2°
